Grand Junction, CO

12:03 AM MST on February 14, 2016 (GMT -0700)
Walker

Weather History for KGJT - July, 2013

Change the Weather History Date:

Wednesday, July 24, 2013

  Actual Average Record
Temperature  
Mean Temperature 80 °F 79 °F  
Max Temperature 89 °F 93 °F 103 °F (1940)
Min Temperature 71 °F 64 °F 53 °F (1957)
Degree Days  
Heating Degree Days 0 0  
Month to date heating degree days 0 0  
Since 1 June heating degree days 5 22  
Since 1 July heating degree days 0 0  
Cooling Degree Days 15 14  
Month to date cooling degree days 376 320  
Year to date cooling degree days 745 602  
Since 1 June cooling degree days 690 551  
Growing Degree Days 31 (Base 50)    
Moisture  
Dew Point 44 °F    
Average Humidity 30    
Maximum Humidity 38    
Minimum Humidity 22    
Precipitation  
Precipitation 0.00 in 0.03 in 0.62 in (1948)
Month to date precipitation 0.64 0.44  
Year to date precipitation 4.06 4.73  
Snow  
Snow 0.00 in 0.00 in 0.00 in (2014)
Month to date snowfall 0.0 0.0  
Since 1 June snowfall 0.0 0.0  
Since 1 July snowfall 0.0 0.0  
Snow Depth 0.00 in    
Sea Level Pressure  
Sea Level Pressure 29.85 in    
Wind  
Wind Speed 10 mph (SE)    
Max Wind Speed 29 mph    
Max Gust Speed 36 mph    
Visibility 10 miles    
Events      
T = Trace of Precipitation, MM = Missing Value Source: NWS Daily Summary

Daily Weather History Graph

Daily Weather History Graph

Search for Another Location

Airport or City:

Trip Planner

Search our weather history database for the weather conditions in past years. The results will help you decide how hot, cold, wet, or windy it might be!

Date:

Astronomy

Jul. 24, 2013 Rise Set
Actual Time 6:07 AM MDT 8:32 PM MDT
Civil Twilight 5:37 AM MDT 9:03 PM MDT
Nautical Twilight 4:59 AM MDT 9:40 PM MDT
Astronomical Twilight 4:17 AM MDT 10:22 PM MDT
Moon 9:42 PM MDT (7/24) 8:30 AM MDT (7/24)
Length of Visible Light 15h 25m
Length of Day
14h 25m
Waning Gibbous, 94% of the Moon is Illuminated
Jul 24
Waning Gibbous
Jul 29
Last Quarter
Aug 6
New
Aug 14
First Quarter
Aug 20
Full

Hourly Weather History & Observations

Time (MDT) Temp. Dew Point Humidity Pressure Visibility Wind Dir Wind Speed Gust Speed Precip Events Conditions
12:53 AM 79.0 °F 39.0 °F 24% 29.83 in 10.0 mi Calm Calm - N/A   Clear
1:53 AM 77.0 °F 39.9 °F 26% 29.81 in 10.0 mi ENE 5.8 mph - N/A   Clear
2:53 AM 79.0 °F 39.9 °F 25% 29.80 in 10.0 mi East 10.4 mph - N/A   Clear
3:53 AM 78.1 °F 42.1 °F 28% 29.80 in 10.0 mi South 3.5 mph - N/A   Clear
4:53 AM 75.0 °F 39.9 °F 28% 29.82 in 10.0 mi ESE 3.5 mph - N/A   Clear
5:53 AM 75.0 °F 39.9 °F 28% 29.84 in 10.0 mi ESE 10.4 mph - N/A   Clear
6:53 AM 73.0 °F 41.0 °F 31% 29.86 in 10.0 mi SE 4.6 mph - N/A   Clear
7:53 AM 75.9 °F 42.1 °F 30% 29.87 in 10.0 mi East 5.8 mph - N/A   Clear
8:53 AM 78.1 °F 43.0 °F 29% 29.89 in 10.0 mi SE 9.2 mph - N/A   Clear
9:53 AM 80.1 °F 43.0 °F 27% 29.91 in 10.0 mi SSE 12.7 mph 23.0 mph N/A   Mostly Cloudy
10:53 AM 81.0 °F 45.0 °F 28% 29.91 in 10.0 mi South 20.7 mph - N/A   Mostly Cloudy
11:53 AM 82.0 °F 45.0 °F 27% 29.91 in 10.0 mi South 23.0 mph 32.2 mph N/A   Mostly Cloudy
12:53 PM 82.0 °F 48.0 °F 30% 29.91 in 10.0 mi South 21.9 mph 34.5 mph N/A   Scattered Clouds
1:53 PM 86.0 °F 46.9 °F 26% 29.90 in 10.0 mi SSE 16.1 mph 24.2 mph N/A   Clear
2:53 PM 82.9 °F 46.9 °F 28% 29.90 in 10.0 mi SSE 15.0 mph - N/A   Partly Cloudy
3:53 PM 86.0 °F 45.0 °F 24% 29.85 in 10.0 mi Variable 5.8 mph - N/A   Clear
4:53 PM 87.1 °F 44.1 °F 22% 29.83 in 10.0 mi Variable 4.6 mph - N/A   Clear
5:53 PM 88.0 °F 45.0 °F 22% 29.82 in 10.0 mi South 15.0 mph 21.9 mph N/A   Clear
6:53 PM 87.1 °F 45.0 °F 23% 29.82 in 10.0 mi SSE 11.5 mph - N/A   Clear
7:53 PM 84.0 °F 46.0 °F 26% 29.80 in 10.0 mi SSE 9.2 mph - N/A   Clear
8:53 PM 82.0 °F 45.0 °F 27% 29.81 in 10.0 mi SSE 8.1 mph - N/A   Clear
9:53 PM 78.1 °F 45.0 °F 31% 29.84 in 10.0 mi ESE 8.1 mph - N/A   Clear
10:53 PM 75.0 °F 44.1 °F 33% 29.86 in 10.0 mi Calm Calm - N/A   Clear
11:53 PM 73.9 °F 46.9 °F 38% 29.86 in 10.0 mi NNW 6.9 mph - N/A   Clear